This is the latest recevied weather packets stored in our database for station/object OE3BCB-14. If no packets are shown the sender has not sent any weather packets the latest 10 day(s).
| Time | Temp. | Humidity | Pressure | Rain* | Wind** | Luminosity | Snow |
|---|---|---|---|---|---|---|---|
| 1777815194 | 39.44° C | 17% | 1016.4 hPa | - | - | 55 W/m² | - |
| 1777814892 | 38.89° C | 16% | 1016.5 hPa | - | - | 56 W/m² | - |
| 1777814589 | 38.89° C | 17% | 1016.6 hPa | - | - | 55 W/m² | - |
| 1777814287 | 38.89° C | 17% | 1016.7 hPa | - | - | 55 W/m² | - |
| 1777813984 | 38.33° C | 17% | 1016.7 hPa | - | - | 62 W/m² | - |
| 1777813682 | 38.89° C | 18% | 1016.8 hPa | - | - | 74 W/m² | - |
| 1777813379 | 38.33° C | 18% | 1016.8 hPa | - | - | 78 W/m² | - |
| 1777812775 | 38.33° C | 18% | 1017 hPa | - | - | 70 W/m² | - |
| 1777812472 | 38.33° C | 18% | 1017.1 hPa | - | - | 74 W/m² | - |
| 1777812170 | 37.78° C | 18% | 1017.2 hPa | - | - | 84 W/m² | - |
| 1777811867 | 38.33° C | 18% | 1017.3 hPa | - | - | 84 W/m² | - |
| 1777811263 | 38.33° C | 19% | 1017.4 hPa | - | - | 70 W/m² | - |
| 1777810960 | 38.33° C | 19% | 1017.4 hPa | - | - | 64 W/m² | - |
| 1777810658 | 37.78° C | 20% | 1017.6 hPa | - | - | 60 W/m² | - |
| 1777810053 | 37.78° C | 20% | 1017.7 hPa | - | - | 60 W/m² | - |
| 1777809750 | 38.33° C | 20% | 1017.7 hPa | - | - | 61 W/m² | - |
| 1777809146 | 36.67° C | 21% | 1017.9 hPa | - | - | 65 W/m² | - |
| 1777808843 | 37.22° C | 21% | 1017.9 hPa | - | - | 67 W/m² | - |
| 1777808541 | 36.11° C | 22% | 1017.8 hPa | - | - | 70 W/m² | - |
| 1777808238 | 35.56° C | 21% | 1017.9 hPa | - | - | 71 W/m² | - |
| 1777807936 | 36.67° C | 22% | 1018.1 hPa | - | - | 72 W/m² | - |
| 1777807634 | 35.56° C | 22% | 1018 hPa | - | - | 75 W/m² | - |
| 1777807331 | 36.67° C | 22% | 1018.1 hPa | - | - | 76 W/m² | - |
| 1777807029 | 36.67° C | 23% | 1018.3 hPa | - | - | 77 W/m² | - |
| 1777806726 | 36.67° C | 23% | 1018.3 hPa | - | - | 77 W/m² | - |
* Rain since midnight (hover to see other rain measurements)
** Current wind speed in m/s (hover to see current wind gust speed)